Flag for U.S.A. Weather past 2 weeks in Buffalo, New York, U.S.A.

Now
45 °F

Light rain. Partly sunny.


Feels Like: 40 °F
Forecast: 39 / 47 °F
Wind: 9 mph from Northwest

Location: Greater Buffalo International Airport

Current Time: Apr 27, 2015 at 1:36:10 PM

Latest Report: Apr 27, 2015 at 12:54 PM


Visibility: 10 mi

Pressure: 29.88 "Hg

Humidity: 68%

Dew point: 35 °F

Location of BuffaloLocation

Historic Weather in Buffalo — Graph

°F

Buffalo temperature yesterday

Maximum temperature yesterday: 51 °F (at 12:54 PM)
Minimum temperature yesterday: 34 °F (at 5:54 AM)
Average temperature yesterday: 43 °F

Past Weeks' High & Low Weather Summary

 TemperatureHumidityPressure
High77 °F (Apr 13, 1:54 PM)97% (Apr 17, 5:54 AM)30.41 "Hg (Apr 17, 5:54 AM)
Low28 °F (Apr 25, 6:54 AM)16% (Apr 16, 2:54 PM)29.39 "Hg (Apr 20, 3:54 PM)
Average47 °F61%29.95 "Hg
* Reported Apr 12 11:54 AM — Apr 27 11:54 AM, Buffalo, Weather by CustomWeather, © 2015

Note: Actual official high and low records may vary slightly from our data, if they occured in-between our weather recording intervals... More about our weather records

Advertising

Buffalo weather history for previous 24 hours

 ConditionsComfort  
Time TempWeatherWind HumidityBarometerVisibility
11:54 AM
Mon, Apr 27
42 °FLight rain. Partly sunny.13 mph76%29.88 "Hg10 mi
10:54 AM41 °FLight rain. Mostly cloudy.10 mph86%29.86 "Hg10 mi
9:54 AM40 °FLight rain. Mostly cloudy.10 mph89%29.85 "Hg7 mi
8:54 AM40 °FLight rain. Mostly cloudy.10 mph89%29.84 "Hg7 mi
7:54 AM40 °FLight rain. Mostly cloudy.9 mph89%29.82 "Hg9 mi
6:54 AM41 °FOvercast.13 mph86%29.81 "Hg10 mi
5:54 AM42 °FMostly cloudy.7 mph79%29.79 "Hg10 mi
4:54 AM42 °FMostly cloudy.6 mph76%29.79 "Hg10 mi
3:54 AM42 °FLight rain. Mostly cloudy.8 mph76%29.79 "Hg10 mi
2:54 AM42 °FOvercast.6 mph73%29.79 "Hg10 mi
1:54 AM44 °FOvercast.9 mph63%29.80 "Hg10 mi
12:54 AM44 °FPassing clouds.7 mph63%29.81 "Hg10 mi
11:54 PM
Sun, Apr 26
44 °FPassing clouds.6 mph63%29.81 "Hg10 mi
10:54 PM40 °FPartly cloudy.6 mph80%29.82 "Hg10 mi
9:54 PM41 °FPassing clouds.7 mph76%29.83 "Hg10 mi
8:54 PM42 °FBroken clouds.8 mph73%29.83 "Hg10 mi
7:54 PM48 °FPartly sunny.7 mph54%29.81 "Hg10 mi
6:54 PM48 °FPartly sunny.12 mph56%29.81 "Hg10 mi
5:54 PM49 °FPartly sunny.9 mph52%29.81 "Hg10 mi
4:54 PM49 °FPartly sunny.9 mph52%29.81 "Hg10 mi
3:54 PM51 °FPartly sunny.9 mph46%29.82 "Hg10 mi
2:54 PM50 °FPartly sunny.13 mph48%29.82 "Hg10 mi
1:54 PM50 °FPartly sunny.10 mph50%29.82 "Hg10 mi
Weather by CustomWeather, © 2015

See weather overviewHow to use our weather pages